This is the latest recevied weather packets stored in our database for station/object SR5NLK-1. If no packets are shown the sender has not sent any weather packets the latest 10 day(s).
| Time | Temp. | Humidity | Pressure | Rain* | Wind** | Luminosity | Snow |
|---|---|---|---|---|---|---|---|
| 1788104991 | 28.89° C | 37% | 1062.7 hPa | 0 mm | - | - | - |
| 1788104930 | 28.89° C | 37% | 1069 hPa | 0 mm | - | - | - |
| 1788104691 | 28.89° C | 37% | 1062.7 hPa | 0 mm | - | - | - |
| 1788104391 | 28.89° C | 37% | 1065.8 hPa | 0 mm | - | - | - |
| 1788104091 | 28.89° C | 36% | 1065.8 hPa | 0 mm | - | - | - |
| 1788103791 | 30° C | 35% | 1062.7 hPa | 0 mm | - | - | - |
| 1788103491 | 30.56° C | 34% | 1061.1 hPa | 0 mm | - | - | - |
| 1788103191 | 31.11° C | 34% | 1059.5 hPa | 0 mm | - | - | - |
| 1788102950 | 31.11° C | 34% | 1087.8 hPa | 0 mm | - | - | - |
| 1788102891 | 31.11° C | 34% | 1075.2 hPa | 0 mm | - | - | - |
| 1788102591 | 31.11° C | 34% | 1062.6 hPa | 0 mm | - | - | - |
| 1788102291 | 31.11° C | 35% | 1089.4 hPa | 0 mm | - | - | - |
| 1788101991 | 30.56° C | 34% | 1069 hPa | 0 mm | - | - | - |
| 1788101691 | 30.56° C | 34% | 1059.5 hPa | 0 mm | - | - | - |
| 1788101391 | 30.56° C | 34% | 1065.8 hPa | 0 mm | - | - | - |
| 1788101091 | 31.11° C | 34% | 1069 hPa | 0 mm | - | - | - |
| 1788100970 | 31.11° C | 34% | 1065.8 hPa | 0 mm | - | - | - |
| 1788100791 | 31.11° C | 34% | 1044.5 hPa | 0 mm | - | - | - |
| 1788100491 | 31.67° C | 34% | 1062.7 hPa | 0 mm | - | - | - |
| 1788100191 | 31.67° C | 34% | 1075.2 hPa | 0 mm | - | - | - |
| 1788099891 | 31.11° C | 35% | 1059.5 hPa | 0 mm | - | - | - |
| 1788099591 | 30.56° C | 36% | 1069 hPa | 0 mm | - | - | - |
| 1788099291 | 30° C | 36% | 1056.4 hPa | 0 mm | - | - | - |
| 1788098991 | 30° C | 36% | 1086.2 hPa | 0 mm | - | - | - |
| 1788098691 | 30° C | 36% | 1073.8 hPa | 0 mm | - | - | - |
* Rain latest hour (hover to see other rain measurements)
** Current wind speed in m/s (hover to see current wind gust speed)